Time,TemperatureF,DewpointF,PressureIn,WindDirection,WindDirectionDegrees,WindSpeedMPH,WindSpeedGustMPH,Humidity,HourlyPrecipIn,Conditions,Clouds,dailyrainin,SoftwareType,DateUTC
2013-09-15 00:00:00,55.4,48.7,30.14,NW,307,3.0,7.0,78,0.00,,---,0.00,VWS V14.01,2013-09-15 04:00:00,
2013-09-15 00:01:00,55.4,48.7,30.14,NW,307,4.0,7.0,78,0.00,,---,0.00,VWS V14.01,2013-09-15 04:01:00,
2013-09-15 00:02:00,55.3,48.9,30.14,NW,311,2.0,4.0,79,0.00,,---,0.00,VWS V14.01,2013-09-15 04:02:00,
2013-09-15 00:07:00,55.1,48.7,30.14,WNW,290,4.0,6.0,79,0.00,,---,0.00,VWS V14.01,2013-09-15 04:07:00,
2013-09-15 00:12:00,54.9,48.9,30.13,NW,313,4.0,6.0,80,0.00,,---,0.00,VWS V14.01,2013-09-15 04:12:00,
2013-09-15 00:17:00,54.7,48.7,30.13,West,269,1.0,6.0,80,0.00,,---,0.00,VWS V14.01,2013-09-15 04:17:00,
2013-09-15 00:22:00,54.7,48.7,30.14,North,357,2.0,7.0,80,0.00,,---,0.00,VWS V14.01,2013-09-15 04:22:00,
2013-09-15 00:27:00,54.6,48.6,30.14,South,182,0.0,7.0,80,0.00,,---,0.00,VWS V14.01,2013-09-15 04:27:00,
2013-09-15 00:32:00,54.6,48.6,30.14,NNW,347,2.0,4.0,80,0.00,,---,0.00,VWS V14.01,2013-09-15 04:32:00,
2013-09-15 00:37:00,54.5,48.5,30.14,NW,310,2.0,6.0,80,0.00,,---,0.00,VWS V14.01,2013-09-15 04:37:00,
2013-09-15 00:42:00,54.5,48.5,30.14,West,270,3.0,7.0,80,0.00,,---,0.00,VWS V14.01,2013-09-15 04:42:00,
2013-09-15 00:47:00,54.3,48.3,30.14,WNW,289,3.0,7.0,80,0.00,,---,0.00,VWS V14.01,2013-09-15 04:47:00,
2013-09-15 00:52:00,54.3,48.6,30.14,NW,306,6.0,7.0,81,0.00,,---,0.00,VWS V14.01,2013-09-15 04:52:00,
2013-09-15 00:57:00,54.1,48.4,30.14,West,271,6.0,8.0,81,0.00,,---,0.00,VWS V14.01,2013-09-15 04:57:00,
2013-09-15 01:02:00,53.9,48.2,30.14,WNW,285,3.0,4.0,81,0.00,,---,0.00,VWS V14.01,2013-09-15 05:02:00,
2013-09-15 01:07:00,53.7,48.0,30.14,West,273,2.0,8.0,81,0.00,,---,0.00,VWS V14.01,2013-09-15 05:07:00,
2013-09-15 01:12:00,53.5,48.2,30.14,ENE,75,2.0,9.0,82,0.00,,---,0.00,VWS V14.01,2013-09-15 05:12:00,
2013-09-15 01:17:00,53.3,48.0,30.14,West,281,3.0,9.0,82,0.00,,---,0.00,VWS V14.01,2013-09-15 05:17:00,
2013-09-15 01:22:00,53.2,47.9,30.14,WNW,284,2.0,9.0,82,0.00,,---,0.00,VWS V14.01,2013-09-15 05:22:00,
2013-09-15 01:27:00,53.1,48.1,30.15,West,269,2.0,9.0,83,0.00,,---,0.00,VWS V14.01,2013-09-15 05:27:00,
2013-09-15 01:32:00,53.0,48.0,30.15,WNW,298,3.0,4.0,83,0.00,,---,0.00,VWS V14.01,2013-09-15 05:32:00,
2013-09-15 01:37:00,53.0,48.0,30.15,WNW,284,5.0,5.0,83,0.00,,---,0.00,VWS V14.01,2013-09-15 05:37:00,
2013-09-15 01:42:00,53.1,48.4,30.15,West,280,5.0,7.0,84,0.00,,---,0.00,VWS V14.01,2013-09-15 05:42:00,
2013-09-15 01:47:00,53.0,48.3,30.15,WNW,302,3.0,7.0,84,0.00,,---,0.00,VWS V14.01,2013-09-15 05:47:00,
2013-09-15 01:52:00,53.0,48.3,30.15,NW,307,4.0,8.0,84,0.00,,---,0.00,VWS V14.01,2013-09-15 05:52:00,
2013-09-15 01:57:00,53.0,48.3,30.15,WNW,299,3.0,9.0,84,0.00,,---,0.00,VWS V14.01,2013-09-15 05:57:00,
2013-09-15 02:02:00,53.2,48.5,30.15,NW,324,5.0,6.0,84,0.00,,---,0.00,VWS V14.01,2013-09-15 06:02:00,
2013-09-15 02:07:00,53.4,48.4,30.15,West,273,4.0,8.0,83,0.00,,---,0.00,VWS V14.01,2013-09-15 06:07:00,
2013-09-15 02:12:00,53.4,48.4,30.15,WNW,302,5.0,10.0,83,0.00,,---,0.00,VWS V14.01,2013-09-15 06:12:00,
2013-09-15 02:17:00,53.6,48.9,30.15,West,270,7.0,10.0,84,0.00,,---,0.00,VWS V14.01,2013-09-15 06:17:00,
2013-09-15 02:22:00,53.8,48.8,30.15,WNW,293,4.0,10.0,83,0.00,,---,0.00,VWS V14.01,2013-09-15 06:22:00,
2013-09-15 02:27:00,53.9,48.9,30.15,West,279,5.0,10.0,83,0.00,,---,0.00,VWS V14.01,2013-09-15 06:27:00,
2013-09-15 02:32:00,54.0,49.3,30.15,WNW,293,3.0,4.0,84,0.00,,---,0.00,VWS V14.01,2013-09-15 06:32:00,
2013-09-15 02:37:00,53.9,49.5,30.15,WNW,288,6.0,6.0,85,0.00,,---,0.00,VWS V14.01,2013-09-15 06:37:00,
2013-09-15 02:42:00,54.0,49.3,30.15,WNW,295,5.0,8.0,84,0.00,,---,0.00,VWS V14.01,2013-09-15 06:42:00,
2013-09-15 02:47:00,53.9,49.2,30.15,NNW,332,6.0,8.0,84,0.00,,---,0.00,VWS V14.01,2013-09-15 06:47:00,
2013-09-15 02:52:00,53.8,49.1,30.15,NW,319,6.0,8.0,84,0.00,,---,0.00,VWS V14.01,2013-09-15 06:52:00,
2013-09-15 02:57:00,53.8,49.1,30.15,NNW,336,3.0,8.0,84,0.00,,---,0.00,VWS V14.01,2013-09-15 06:57:00,
2013-09-15 03:02:00,53.8,49.1,30.15,West,280,7.0,8.0,84,0.00,,---,0.00,VWS V14.01,2013-09-15 07:02:00,
2013-09-15 03:07:00,53.9,48.9,30.15,West,278,3.0,9.0,83,0.00,,---,0.00,VWS V14.01,2013-09-15 07:07:00,
2013-09-15 03:12:00,53.9,48.9,30.15,WNW,293,3.0,9.0,83,0.00,,---,0.00,VWS V14.01,2013-09-15 07:12:00,
2013-09-15 03:17:00,53.7,48.7,30.15,WNW,284,5.0,9.0,83,0.00,,---,0.00,VWS V14.01,2013-09-15 07:17:00,
2013-09-15 03:22:00,53.7,48.3,30.15,NNW,333,2.0,9.0,82,0.00,,---,0.00,VWS V14.01,2013-09-15 07:22:00,
2013-09-15 03:27:00,53.5,48.2,30.16,WNW,290,1.0,9.0,82,0.00,,---,0.00,VWS V14.01,2013-09-15 07:27:00,
2013-09-15 03:32:00,53.4,47.7,30.16,WNW,294,4.0,5.0,81,0.00,,---,0.00,VWS V14.01,2013-09-15 07:32:00,
2013-09-15 03:37:00,53.2,47.2,30.16,NW,323,3.0,7.0,80,0.00,,---,0.00,VWS V14.01,2013-09-15 07:37:00,
2013-09-15 03:42:00,53.1,47.4,30.16,WSW,243,6.0,8.0,81,0.00,,---,0.00,VWS V14.01,2013-09-15 07:42:00,
2013-09-15 03:47:00,53.0,47.3,30.16,NW,304,3.0,8.0,81,0.00,,---,0.00,VWS V14.01,2013-09-15 07:47:00,
2013-09-15 03:52:00,53.0,47.0,30.16,WNW,287,9.0,9.0,80,0.00,,---,0.00,VWS V14.01,2013-09-15 07:52:00,
2013-09-15 03:57:00,52.9,46.9,30.16,WNW,288,5.0,9.0,80,0.00,,---,0.00,VWS V14.01,2013-09-15 07:57:00,
2013-09-15 04:02:00,52.9,46.9,30.16,NW,307,4.0,6.0,80,0.00,,---,0.00,VWS V14.01,2013-09-15 08:02:00,
2013-09-15 04:07:00,52.8,47.1,30.16,NW,321,5.0,8.0,81,0.00,,---,0.00,VWS V14.01,2013-09-15 08:07:00,
2013-09-15 04:12:00,52.8,46.8,30.16,SW,235,3.0,8.0,80,0.00,,---,0.00,VWS V14.01,2013-09-15 08:12:00,
2013-09-15 04:17:00,52.8,46.8,30.16,WNW,300,4.0,11.0,80,0.00,,---,0.00,VWS V14.01,2013-09-15 08:17:00,
2013-09-15 04:22:00,52.9,46.9,30.16,WNW,299,4.0,11.0,80,0.00,,---,0.00,VWS V14.01,2013-09-15 08:22:00,
2013-09-15 04:27:00,53.0,47.0,30.16,WNW,300,5.0,11.0,80,0.00,,---,0.00,VWS V14.01,2013-09-15 08:27:00,
2013-09-15 04:32:00,53.0,47.0,30.17,WNW,303,3.0,9.0,80,0.00,,---,0.00,VWS V14.01,2013-09-15 08:32:00,
2013-09-15 04:37:00,53.0,47.0,30.17,WNW,302,3.0,9.0,80,0.00,,---,0.00,VWS V14.01,2013-09-15 08:37:00,
2013-09-15 04:42:00,53.1,47.1,30.17,WNW,290,5.0,9.0,80,0.00,,---,0.00,VWS V14.01,2013-09-15 08:42:00,
2013-09-15 04:47:00,53.1,46.8,30.17,West,278,1.0,9.0,79,0.00,,---,0.00,VWS V14.01,2013-09-15 08:47:00,
2013-09-15 04:52:00,53.2,47.2,30.17,WNW,284,6.0,9.0,80,0.00,,---,0.00,VWS V14.01,2013-09-15 08:52:00,
2013-09-15 04:57:00,53.3,47.3,30.17,WNW,302,4.0,9.0,80,0.00,,---,0.00,VWS V14.01,2013-09-15 08:57:00,
2013-09-15 05:02:00,53.5,48.2,30.17,West,264,4.0,5.0,82,0.00,,---,0.00,VWS V14.01,2013-09-15 09:02:00,
2013-09-15 05:07:00,53.7,48.0,30.17,WNW,290,4.0,10.0,81,0.00,,---,0.00,VWS V14.01,2013-09-15 09:07:00,
2013-09-15 05:12:00,53.8,48.1,30.17,NW,309,6.0,10.0,81,0.00,,---,0.00,VWS V14.01,2013-09-15 09:12:00,
2013-09-15 05:17:00,53.9,48.2,30.17,NW,304,4.0,10.0,81,0.00,,---,0.00,VWS V14.01,2013-09-15 09:17:00,
2013-09-15 05:22:00,53.9,48.2,30.17,NW,322,5.0,10.0,81,0.00,,---,0.00,VWS V14.01,2013-09-15 09:22:00,
2013-09-15 05:27:00,53.9,47.9,30.17,WNW,289,7.0,10.0,80,0.00,,---,0.00,VWS V14.01,2013-09-15 09:27:00,
2013-09-15 05:32:00,53.9,47.5,30.17,NW,311,5.0,5.0,79,0.00,,---,0.00,VWS V14.01,2013-09-15 09:32:00,
2013-09-15 05:37:00,53.9,47.5,30.17,WNW,300,3.0,7.0,79,0.00,,---,0.00,VWS V14.01,2013-09-15 09:37:00,
2013-09-15 05:42:00,53.8,47.5,30.17,West,279,5.0,8.0,79,0.00,,---,0.00,VWS V14.01,2013-09-15 09:42:00,
2013-09-15 05:47:00,53.7,47.3,30.17,West,262,2.0,8.0,79,0.00,,---,0.00,VWS V14.01,2013-09-15 09:47:00,
2013-09-15 05:52:00,53.6,47.6,30.17,WSW,245,4.0,8.0,80,0.00,,---,0.00,VWS V14.01,2013-09-15 09:52:00,
2013-09-15 05:57:00,53.6,47.3,30.17,NW,307,4.0,8.0,79,0.00,,---,0.00,VWS V14.01,2013-09-15 09:57:00,
2013-09-15 06:02:00,53.4,47.1,30.17,West,265,1.0,6.0,79,0.00,,---,0.00,VWS V14.01,2013-09-15 10:02:00,
2013-09-15 06:07:00,53.3,47.0,30.18,WNW,300,3.0,6.0,79,0.00,,---,0.00,VWS V14.01,2013-09-15 10:07:00,
2013-09-15 06:12:00,53.1,46.8,30.18,WNW,289,3.0,6.0,79,0.00,,---,0.00,VWS V14.01,2013-09-15 10:12:00,
2013-09-15 06:17:00,53.0,47.0,30.18,West,281,2.0,6.0,80,0.00,,---,0.00,VWS V14.01,2013-09-15 10:17:00,
2013-09-15 06:22:00,52.8,46.8,30.18,WNW,283,2.0,6.0,80,0.00,,---,0.00,VWS V14.01,2013-09-15 10:22:00,
2013-09-15 06:27:00,52.6,46.6,30.18,NW,311,0.0,6.0,80,0.00,,---,0.00,VWS V14.01,2013-09-15 10:27:00,
2013-09-15 06:32:00,52.4,46.4,30.18,WNW,292,3.0,3.0,80,0.00,,---,0.00,VWS V14.01,2013-09-15 10:32:00,
2013-09-15 06:37:00,52.1,46.5,30.18,WNW,293,4.0,5.0,81,0.00,,---,0.00,VWS V14.01,2013-09-15 10:37:00,
2013-09-15 06:42:00,52.0,46.4,30.18,WNW,283,1.0,5.0,81,0.00,,---,0.00,VWS V14.01,2013-09-15 10:42:00,
2013-09-15 06:47:00,52.1,46.5,30.18,NW,318,2.0,5.0,81,0.00,,---,0.00,VWS V14.01,2013-09-15 10:47:00,
2013-09-15 06:52:00,52.3,47.0,30.18,NW,309,2.0,5.0,82,0.00,,---,0.00,VWS V14.01,2013-09-15 10:52:00,
2013-09-15 06:57:00,52.7,47.4,30.18,NW,326,4.0,6.0,82,0.00,,---,0.00,VWS V14.01,2013-09-15 10:57:00,
2013-09-15 07:02:00,53.0,47.7,30.19,NW,315,2.0,4.0,82,0.00,,---,0.00,VWS V14.01,2013-09-15 11:02:00,
2013-09-15 07:07:00,53.4,47.7,30.19,West,278,1.0,5.0,81,0.00,,---,0.00,VWS V14.01,2013-09-15 11:07:00,
2013-09-15 07:12:00,53.5,47.8,30.19,North,354,3.0,5.0,81,0.00,,---,0.00,VWS V14.01,2013-09-15 11:12:00,
2013-09-15 07:17:00,53.6,48.2,30.19,NNW,330,3.0,7.0,82,0.00,,---,0.00,VWS V14.01,2013-09-15 11:17:00,
2013-09-15 07:22:00,53.8,48.1,30.19,WNW,297,2.0,7.0,81,0.00,,---,0.00,VWS V14.01,2013-09-15 11:22:00,
2013-09-15 07:27:00,53.7,47.7,30.19,NNW,335,2.0,7.0,80,0.00,,---,0.00,VWS V14.01,2013-09-15 11:27:00,
2013-09-15 07:32:00,53.9,47.2,30.19,NNE,13,3.0,4.0,78,0.00,,---,0.00,VWS V14.01,2013-09-15 11:32:00,
2013-09-15 07:37:00,54.1,47.4,30.19,NW,322,2.0,5.0,78,0.00,,---,0.00,VWS V14.01,2013-09-15 11:37:00,
2013-09-15 07:42:00,54.3,47.2,30.20,North,353,3.0,6.0,77,0.00,,---,0.00,VWS V14.01,2013-09-15 11:42:00,
2013-09-15 07:47:00,54.4,47.3,30.20,North,359,2.0,6.0,77,0.00,,---,0.00,VWS V14.01,2013-09-15 11:47:00,
2013-09-15 07:52:00,54.7,47.3,30.20,WSW,250,2.0,7.0,76,0.00,,---,0.00,VWS V14.01,2013-09-15 11:52:00,
2013-09-15 07:57:00,55.3,47.9,30.20,NNW,329,1.0,7.0,76,0.00,,---,0.00,VWS V14.01,2013-09-15 11:57:00,
2013-09-15 08:02:00,55.6,47.5,30.20,WNW,302,7.0,7.0,74,0.00,,---,0.00,VWS V14.01,2013-09-15 12:02:00,
2013-09-15 08:07:00,55.5,47.0,30.20,West,260,4.0,7.0,73,0.00,,---,0.00,VWS V14.01,2013-09-15 12:07:00,
2013-09-15 08:12:00,55.7,47.5,30.20,WNW,291,3.0,7.0,74,0.00,,---,0.00,VWS V14.01,2013-09-15 12:12:00,
2013-09-15 08:17:00,56.1,47.6,30.21,NW,316,5.0,7.0,73,0.00,,---,0.00,VWS V14.01,2013-09-15 12:17:00,
2013-09-15 08:22:00,56.4,47.5,30.21,WNW,285,2.0,8.0,72,0.00,,---,0.00,VWS V14.01,2013-09-15 12:22:00,
2013-09-15 08:27:00,56.6,47.7,30.21,NW,319,3.0,8.0,72,0.00,,---,0.00,VWS V14.01,2013-09-15 12:27:00,
2013-09-15 08:32:00,57.2,47.9,30.21,WNW,290,4.0,4.0,71,0.00,,---,0.00,VWS V14.01,2013-09-15 12:32:00,
2013-09-15 08:37:00,57.4,47.7,30.21,West,271,2.0,6.0,70,0.00,,---,0.00,VWS V14.01,2013-09-15 12:37:00,
2013-09-15 08:42:00,58.1,48.8,30.21,NW,323,0.0,6.0,71,0.00,,---,0.00,VWS V14.01,2013-09-15 12:42:00,
2013-09-15 08:47:00,58.6,48.5,30.21,WNW,299,4.0,6.0,69,0.00,,---,0.00,VWS V14.01,2013-09-15 12:47:00,
2013-09-15 08:52:00,59.1,49.0,30.21,WNW,293,0.0,6.0,69,0.00,,---,0.00,VWS V14.01,2013-09-15 12:52:00,
2013-09-15 08:57:00,59.6,48.2,30.21,WNW,295,3.0,7.0,66,0.00,,---,0.00,VWS V14.01,2013-09-15 12:57:00,
2013-09-15 09:02:00,59.6,48.6,30.21,NW,309,3.0,3.0,67,0.00,,---,0.00,VWS V14.01,2013-09-15 13:02:00,
2013-09-15 09:07:00,60.1,48.7,30.22,WNW,283,2.0,4.0,66,0.00,,---,0.00,VWS V14.01,2013-09-15 13:07:00,
2013-09-15 09:12:00,60.7,49.7,30.22,WNW,294,3.0,5.0,67,0.00,,---,0.00,VWS V14.01,2013-09-15 13:12:00,
2013-09-15 09:17:00,60.9,49.9,30.22,NW,313,0.0,6.0,67,0.00,,---,0.00,VWS V14.01,2013-09-15 13:17:00,
2013-09-15 09:22:00,61.0,49.6,30.22,WSW,245,3.0,6.0,66,0.00,,---,0.00,VWS V14.01,2013-09-15 13:22:00,
2013-09-15 09:27:00,61.2,49.8,30.22,West,276,2.0,6.0,66,0.00,,---,0.00,VWS V14.01,2013-09-15 13:27:00,
2013-09-15 09:32:00,62.0,50.1,30.22,West,262,4.0,4.0,65,0.00,,---,0.00,VWS V14.01,2013-09-15 13:32:00,
2013-09-15 09:37:00,62.2,49.5,30.22,NNW,330,2.0,5.0,63,0.00,,---,0.00,VWS V14.01,2013-09-15 13:37:00,
2013-09-15 09:42:00,62.5,50.2,30.22,West,274,4.0,6.0,64,0.00,,---,0.00,VWS V14.01,2013-09-15 13:42:00,
2013-09-15 09:47:00,62.5,49.3,30.22,NW,306,4.0,6.0,62,0.00,,---,0.00,VWS V14.01,2013-09-15 13:47:00,
2013-09-15 09:52:00,62.3,49.1,30.22,WSW,258,4.0,6.0,62,0.00,,---,0.00,VWS V14.01,2013-09-15 13:52:00,
2013-09-15 09:57:00,62.9,49.3,30.23,WNW,297,3.0,6.0,61,0.00,,---,0.00,VWS V14.01,2013-09-15 13:57:00,
2013-09-15 10:02:00,63.2,49.1,30.23,West,274,4.0,5.0,60,0.00,,---,0.00,VWS V14.01,2013-09-15 14:02:00,
2013-09-15 10:07:00,63.2,48.2,30.23,NW,311,3.0,7.0,58,0.00,,---,0.00,VWS V14.01,2013-09-15 14:07:00,
2013-09-15 10:12:00,63.4,47.9,30.23,WNW,300,5.0,7.0,57,0.00,,---,0.00,VWS V14.01,2013-09-15 14:12:00,
2013-09-15 10:17:00,64.0,49.4,30.23,WNW,295,5.0,7.0,59,0.00,,---,0.00,VWS V14.01,2013-09-15 14:17:00,
2013-09-15 10:22:00,64.4,48.4,30.23,West,266,2.0,7.0,56,0.00,,---,0.00,VWS V14.01,2013-09-15 14:22:00,
2013-09-15 10:27:00,64.3,47.8,30.23,WNW,299,3.0,7.0,55,0.00,,---,0.00,VWS V14.01,2013-09-15 14:27:00,
2013-09-15 10:32:00,64.7,48.2,30.22,West,281,6.0,7.0,55,0.00,,---,0.00,VWS V14.01,2013-09-15 14:32:00,
2013-09-15 10:37:00,64.8,48.3,30.22,East,93,0.0,7.0,55,0.00,,---,0.00,VWS V14.01,2013-09-15 14:37:00,
2013-09-15 10:42:00,65.1,47.6,30.22,WNW,285,5.0,7.0,53,0.00,,---,0.00,VWS V14.01,2013-09-15 14:42:00,
2013-09-15 10:47:00,64.8,47.3,30.22,West,269,4.0,7.0,53,0.00,,---,0.00,VWS V14.01,2013-09-15 14:47:00,
2013-09-15 10:52:00,65.6,48.0,30.22,NW,321,2.0,7.0,53,0.00,,---,0.00,VWS V14.01,2013-09-15 14:52:00,
2013-09-15 10:58:00,66.4,47.7,30.22,NW,304,2.0,7.0,51,0.00,,---,0.00,VWS V14.01,2013-09-15 14:58:00,
2013-09-15 11:03:00,66.3,47.7,30.22,WNW,290,6.0,7.0,51,0.00,,---,0.00,VWS V14.01,2013-09-15 15:03:00,
2013-09-15 11:08:00,66.6,48.4,30.22,NW,323,5.0,8.0,52,0.00,,---,0.00,VWS V14.01,2013-09-15 15:08:00,
2013-09-15 11:13:00,66.5,48.3,30.22,West,279,4.0,8.0,52,0.00,,---,0.00,VWS V14.01,2013-09-15 15:13:00,
2013-09-15 11:18:00,66.8,48.6,30.22,WNW,289,6.0,8.0,52,0.00,,---,0.00,VWS V14.01,2013-09-15 15:18:00,
2013-09-15 11:23:00,66.5,48.9,30.21,West,259,2.0,8.0,53,0.00,,---,0.00,VWS V14.01,2013-09-15 15:23:00,
2013-09-15 11:28:00,66.9,48.7,30.21,SW,231,8.0,8.0,52,0.00,,---,0.00,VWS V14.01,2013-09-15 15:28:00,
2013-09-15 11:33:00,66.7,48.5,30.21,WNW,298,2.0,8.0,52,0.00,,---,0.00,VWS V14.01,2013-09-15 15:33:00,
2013-09-15 11:38:00,67.2,48.5,30.21,WNW,303,3.0,8.0,51,0.00,,---,0.00,VWS V14.01,2013-09-15 15:38:00,
2013-09-15 11:43:00,67.7,49.5,30.21,North,356,1.0,8.0,52,0.00,,---,0.00,VWS V14.01,2013-09-15 15:43:00,
2013-09-15 11:48:00,68.4,49.6,30.21,WSW,247,2.0,8.0,51,0.00,,---,0.00,VWS V14.01,2013-09-15 15:48:00,
2013-09-15 11:53:00,69.5,52.6,30.21,SSE,158,1.0,8.0,55,0.00,,---,0.00,VWS V14.01,2013-09-15 15:53:00,
2013-09-15 11:58:00,68.0,51.7,30.21,ESE,115,10.0,11.0,56,0.00,,---,0.00,VWS V14.01,2013-09-15 15:58:00,
2013-09-15 12:03:00,67.0,51.3,30.21,SE,124,8.0,9.0,57,0.00,,---,0.00,VWS V14.01,2013-09-15 16:03:00,
2013-09-15 12:08:00,67.6,51.4,30.21,SE,146,7.0,9.0,56,0.00,,---,0.00,VWS V14.01,2013-09-15 16:08:00,
2013-09-15 12:13:00,68.2,51.9,30.21,ESE,118,4.0,9.0,56,0.00,,---,0.00,VWS V14.01,2013-09-15 16:13:00,
2013-09-15 12:18:00,68.6,51.8,30.21,SE,146,5.0,9.0,55,0.00,,---,0.00,VWS V14.01,2013-09-15 16:18:00,
2013-09-15 12:23:00,68.6,52.3,30.21,SE,127,5.0,9.0,56,0.00,,---,0.00,VWS V14.01,2013-09-15 16:23:00,
2013-09-15 12:28:00,69.4,51.5,30.21,South,181,2.0,9.0,53,0.00,,---,0.00,VWS V14.01,2013-09-15 16:28:00,
2013-09-15 12:33:00,70.0,51.6,30.20,SSW,201,3.0,6.0,52,0.00,,---,0.00,VWS V14.01,2013-09-15 16:33:00,
2013-09-15 12:38:00,70.0,51.1,30.20,SSE,158,2.0,7.0,51,0.00,,---,0.00,VWS V14.01,2013-09-15 16:38:00,
2013-09-15 12:43:00,69.8,51.4,30.20,SW,231,6.0,7.0,52,0.00,,---,0.00,VWS V14.01,2013-09-15 16:43:00,
2013-09-15 12:48:00,70.0,52.1,30.20,SSW,203,4.0,7.0,53,0.00,,---,0.00,VWS V14.01,2013-09-15 16:48:00,
2013-09-15 12:53:00,70.0,52.1,30.20,SE,140,5.0,7.0,53,0.00,,---,0.00,VWS V14.01,2013-09-15 16:53:00,
2013-09-15 12:58:00,69.1,51.8,30.19,SSE,150,8.0,8.0,54,0.00,,---,0.00,VWS V14.01,2013-09-15 16:58:00,
2013-09-15 13:03:00,68.2,51.4,30.20,SE,139,6.0,10.0,55,0.00,,---,0.00,VWS V14.01,2013-09-15 17:03:00,
2013-09-15 13:08:00,68.3,52.0,30.19,SE,138,4.0,10.0,56,0.00,,---,0.00,VWS V14.01,2013-09-15 17:08:00,
2013-09-15 13:13:00,67.9,52.1,30.20,SW,229,5.0,10.0,57,0.00,,---,0.00,VWS V14.01,2013-09-15 17:13:00,
2013-09-15 13:18:00,67.7,52.9,30.19,SE,136,7.0,10.0,59,0.00,,---,0.00,VWS V14.01,2013-09-15 17:18:00,
2013-09-15 13:23:00,67.7,52.9,30.19,SE,136,9.0,10.0,59,0.00,,---,0.00,VWS V14.01,2013-09-15 17:23:00,
2013-09-15 13:28:00,68.0,52.7,30.19,SE,140,9.0,10.0,58,0.00,,---,0.00,VWS V14.01,2013-09-15 17:28:00,
2013-09-15 13:33:00,68.5,54.1,30.19,SE,136,6.0,9.0,60,0.00,,---,0.00,VWS V14.01,2013-09-15 17:33:00,
2013-09-15 13:38:00,68.7,53.3,30.19,SSE,159,6.0,10.0,58,0.00,,---,0.00,VWS V14.01,2013-09-15 17:38:00,
2013-09-15 13:43:00,69.5,53.6,30.19,SE,124,7.0,10.0,57,0.00,,---,0.00,VWS V14.01,2013-09-15 17:43:00,
2013-09-15 13:48:00,70.2,53.8,30.19,ESE,118,4.0,10.0,56,0.00,,---,0.00,VWS V14.01,2013-09-15 17:48:00,
2013-09-15 13:53:00,70.8,53.8,30.19,WSW,255,3.0,10.0,55,0.00,,---,0.00,VWS V14.01,2013-09-15 17:53:00,
2013-09-15 13:58:00,71.1,54.1,30.19,SW,217,5.0,10.0,55,0.00,,---,0.00,VWS V14.01,2013-09-15 17:58:00,
2013-09-15 14:03:00,70.4,54.0,30.19,WSW,238,3.0,10.0,56,0.00,,---,0.00,VWS V14.01,2013-09-15 18:03:00,
2013-09-15 14:08:00,70.5,54.5,30.18,SW,222,4.0,10.0,57,0.00,,---,0.00,VWS V14.01,2013-09-15 18:08:00,
2013-09-15 14:13:00,71.0,54.0,30.18,WSW,255,3.0,10.0,55,0.00,,---,0.00,VWS V14.01,2013-09-15 18:13:00,
2013-09-15 14:18:00,70.7,54.2,30.18,North,349,3.0,10.0,56,0.00,,---,0.00,VWS V14.01,2013-09-15 18:18:00,
2013-09-15 14:23:00,70.7,54.2,30.18,SW,236,4.0,10.0,56,0.00,,---,0.00,VWS V14.01,2013-09-15 18:23:00,
2013-09-15 14:28:00,70.4,54.5,30.18,SSW,195,4.0,10.0,57,0.00,,---,0.00,VWS V14.01,2013-09-15 18:28:00,
2013-09-15 14:33:00,70.3,54.4,30.18,WNW,288,5.0,7.0,57,0.00,,---,0.00,VWS V14.01,2013-09-15 18:33:00,
2013-09-15 14:38:00,70.2,53.8,30.17,West,274,5.0,9.0,56,0.00,,---,0.00,VWS V14.01,2013-09-15 18:38:00,
2013-09-15 14:43:00,70.2,54.8,30.17,West,261,5.0,9.0,58,0.00,,---,0.00,VWS V14.01,2013-09-15 18:43:00,
2013-09-15 14:48:00,70.4,54.9,30.17,South,188,5.0,10.0,58,0.00,,---,0.00,VWS V14.01,2013-09-15 18:48:00,
2013-09-15 14:53:00,70.5,55.0,30.17,SSW,209,6.0,11.0,58,0.00,,---,0.00,VWS V14.01,2013-09-15 18:53:00,
2013-09-15 14:58:00,70.5,54.5,30.16,SSW,205,4.0,11.0,57,0.00,,---,0.00,VWS V14.01,2013-09-15 18:58:00,
2013-09-15 15:03:00,70.2,54.8,30.16,NNE,18,7.0,9.0,58,0.00,,---,0.00,VWS V14.01,2013-09-15 19:03:00,
2013-09-15 15:08:00,70.5,54.5,30.16,SW,236,5.0,9.0,57,0.00,,---,0.00,VWS V14.01,2013-09-15 19:08:00,
2013-09-15 15:13:00,69.9,54.5,30.15,NNW,333,4.0,13.0,58,0.00,,---,0.00,VWS V14.01,2013-09-15 19:13:00,
2013-09-15 15:18:00,69.7,55.2,30.15,SSW,198,6.0,13.0,60,0.00,,---,0.00,VWS V14.01,2013-09-15 19:18:00,
2013-09-15 15:23:00,69.7,55.2,30.15,East,80,9.0,13.0,60,0.00,,---,0.00,VWS V14.01,2013-09-15 19:23:00,
2013-09-15 15:28:00,69.9,54.9,30.15,SSW,203,3.0,13.0,59,0.00,,---,0.00,VWS V14.01,2013-09-15 19:28:00,
2013-09-15 15:33:00,70.1,56.0,30.15,SSW,210,3.0,10.0,61,0.00,,---,0.00,VWS V14.01,2013-09-15 19:33:00,
2013-09-15 15:38:00,70.2,56.1,30.15,NW,320,6.0,12.0,61,0.00,,---,0.00,VWS V14.01,2013-09-15 19:38:00,
2013-09-15 15:43:00,70.0,56.4,30.15,West,271,5.0,12.0,62,0.00,,---,0.00,VWS V14.01,2013-09-15 19:43:00,
2013-09-15 15:48:00,69.8,56.2,30.15,SW,232,10.0,14.0,62,0.00,,---,0.00,VWS V14.01,2013-09-15 19:48:00,
2013-09-15 15:53:00,69.9,57.2,30.14,West,262,5.0,14.0,64,0.00,,---,0.00,VWS V14.01,2013-09-15 19:53:00,
2013-09-15 15:58:00,69.8,56.2,30.14,SSE,160,8.0,14.0,62,0.00,,---,0.00,VWS V14.01,2013-09-15 19:58:00,
2013-09-15 16:03:00,70.2,57.0,30.13,WSW,239,4.0,10.0,63,0.00,,---,0.00,VWS V14.01,2013-09-15 20:03:00,
2013-09-15 16:08:00,69.9,56.8,30.14,SSE,163,5.0,12.0,63,0.00,,---,0.00,VWS V14.01,2013-09-15 20:08:00,
2013-09-15 16:13:00,70.0,56.8,30.13,WNW,296,5.0,12.0,63,0.00,,---,0.00,VWS V14.01,2013-09-15 20:13:00,
2013-09-15 16:18:00,69.6,56.9,30.13,South,174,3.0,13.0,64,0.00,,---,0.00,VWS V14.01,2013-09-15 20:18:00,
2013-09-15 16:23:00,69.8,57.1,30.13,NNW,340,4.0,13.0,64,0.00,,---,0.00,VWS V14.01,2013-09-15 20:23:00,
2013-09-15 16:28:00,69.8,57.1,30.13,West,266,4.0,13.0,64,0.00,,---,0.00,VWS V14.01,2013-09-15 20:28:00,
2013-09-15 16:33:00,70.2,57.5,30.12,SE,127,6.0,11.0,64,0.00,,---,0.00,VWS V14.01,2013-09-15 20:33:00,
2013-09-15 16:38:00,70.7,57.5,30.12,ESE,113,4.0,11.0,63,0.00,,---,0.00,VWS V14.01,2013-09-15 20:38:00,
2013-09-15 16:43:00,70.9,57.2,30.12,SE,142,3.0,11.0,62,0.00,,---,0.00,VWS V14.01,2013-09-15 20:43:00,
2013-09-15 16:48:00,70.3,57.1,30.12,SSW,193,5.0,11.0,63,0.00,,---,0.00,VWS V14.01,2013-09-15 20:48:00,
2013-09-15 16:53:00,70.4,57.2,30.12,West,267,2.0,11.0,63,0.00,,---,0.00,VWS V14.01,2013-09-15 20:53:00,
2013-09-15 16:58:00,70.6,57.4,30.12,SE,131,4.0,11.0,63,0.00,,---,0.00,VWS V14.01,2013-09-15 20:58:00,
2013-09-15 17:03:00,70.4,57.2,30.12,SSW,213,7.0,13.0,63,0.00,,---,0.00,VWS V14.01,2013-09-15 21:03:00,
2013-09-15 17:08:00,69.9,56.8,30.12,SSE,161,4.0,13.0,63,0.00,,---,0.00,VWS V14.01,2013-09-15 21:08:00,
2013-09-15 17:13:00,69.7,57.8,30.12,ESE,102,9.0,13.0,66,0.00,,---,0.00,VWS V14.01,2013-09-15 21:13:00,
2013-09-15 17:18:00,69.1,57.3,30.12,SSE,155,11.0,13.0,66,0.00,,---,0.00,VWS V14.01,2013-09-15 21:18:00,
2013-09-15 17:23:00,69.2,56.1,30.11,SW,223,9.0,13.0,63,0.00,,---,0.00,VWS V14.01,2013-09-15 21:23:00,
2013-09-15 17:28:00,68.6,56.0,30.12,West,261,6.0,13.0,64,0.00,,---,0.00,VWS V14.01,2013-09-15 21:28:00,
2013-09-15 17:33:00,68.6,56.4,30.12,NE,53,9.0,11.0,65,0.00,,---,0.00,VWS V14.01,2013-09-15 21:33:00,
2013-09-15 17:38:00,68.6,56.0,30.12,SW,228,5.0,13.0,64,0.00,,---,0.00,VWS V14.01,2013-09-15 21:38:00,
2013-09-15 17:43:00,68.6,56.4,30.12,SSW,193,7.0,13.0,65,0.00,,---,0.00,VWS V14.01,2013-09-15 21:43:00,
2013-09-15 17:48:00,68.3,55.7,30.12,SSW,203,7.0,14.0,64,0.00,,---,0.00,VWS V14.01,2013-09-15 21:48:00,
2013-09-15 17:53:00,68.2,55.6,30.12,WSW,238,8.0,14.0,64,0.00,,---,0.00,VWS V14.01,2013-09-15 21:53:00,
2013-09-15 17:58:00,68.2,56.0,30.12,West,278,7.0,15.0,65,0.00,,---,0.00,VWS V14.01,2013-09-15 21:58:00,
2013-09-15 18:04:00,68.0,55.0,30.12,WSW,242,10.0,13.0,63,0.00,,---,0.00,VWS V14.01,2013-09-15 22:04:00,
2013-09-15 18:09:00,67.8,56.0,30.12,North,4,8.0,13.0,66,0.00,,---,0.00,VWS V14.01,2013-09-15 22:09:00,
2013-09-15 18:13:00,67.5,54.9,30.12,WNW,290,6.0,13.0,64,0.00,,---,0.00,VWS V14.01,2013-09-15 22:13:00,
2013-09-15 18:18:00,67.5,54.9,30.12,West,269,5.0,14.0,64,0.00,,---,0.00,VWS V14.01,2013-09-15 22:18:00,
2013-09-15 18:23:00,67.3,55.6,30.11,South,176,9.0,14.0,66,0.00,,---,0.00,VWS V14.01,2013-09-15 22:23:00,
2013-09-15 18:28:00,67.1,55.4,30.11,WSW,246,6.0,14.0,66,0.00,,---,0.00,VWS V14.01,2013-09-15 22:28:00,
2013-09-15 18:33:00,66.8,55.5,30.11,West,271,10.0,10.0,67,0.00,,---,0.00,VWS V14.01,2013-09-15 22:33:00,
2013-09-15 18:38:00,66.6,55.7,30.12,East,80,10.0,13.0,68,0.00,,---,0.00,VWS V14.01,2013-09-15 22:38:00,
2013-09-15 18:43:00,66.4,55.1,30.11,SSE,167,11.0,13.0,67,0.00,,---,0.00,VWS V14.01,2013-09-15 22:43:00,
2013-09-15 18:48:00,66.2,55.3,30.11,SSE,161,9.0,13.0,68,0.00,,---,0.00,VWS V14.01,2013-09-15 22:48:00,
2013-09-15 18:53:00,66.2,55.7,30.11,WNW,283,5.0,13.0,69,0.00,,---,0.00,VWS V14.01,2013-09-15 22:53:00,
2013-09-15 18:58:00,66.1,56.0,30.12,SSE,157,9.0,14.0,70,0.00,,---,0.00,VWS V14.01,2013-09-15 22:58:00,
2013-09-15 19:03:00,66.0,56.0,30.11,SW,233,4.0,13.0,70,0.00,,---,0.00,VWS V14.01,2013-09-15 23:03:00,
2013-09-15 19:08:00,65.9,55.8,30.11,West,259,6.0,13.0,70,0.00,,---,0.00,VWS V14.01,2013-09-15 23:08:00,
2013-09-15 19:13:00,65.9,56.2,30.11,WNW,285,5.0,13.0,71,0.00,,---,0.00,VWS V14.01,2013-09-15 23:13:00,
2013-09-15 19:18:00,65.8,56.2,30.11,South,177,8.0,15.0,71,0.00,,---,0.00,VWS V14.01,2013-09-15 23:18:00,
2013-09-15 19:23:00,65.8,55.8,30.11,SW,233,11.0,15.0,70,0.00,,---,0.00,VWS V14.01,2013-09-15 23:23:00,
2013-09-15 19:28:00,65.8,55.8,30.11,East,89,7.0,15.0,70,0.00,,---,0.00,VWS V14.01,2013-09-15 23:28:00,
2013-09-15 19:33:00,65.9,56.2,30.11,South,181,7.0,11.0,71,0.00,,---,0.00,VWS V14.01,2013-09-15 23:33:00,
2013-09-15 19:39:00,65.8,56.2,30.11,ESE,107,14.0,14.0,71,0.00,,---,0.00,VWS V14.01,2013-09-15 23:39:00,
2013-09-15 19:43:00,65.9,56.2,30.11,WSW,243,7.0,14.0,71,0.00,,---,0.00,VWS V14.01,2013-09-15 23:43:00,
2013-09-15 19:49:00,65.9,56.6,30.11,NNW,330,8.0,14.0,72,0.00,,---,0.00,VWS V14.01,2013-09-15 23:49:00,
2013-09-15 19:54:00,65.9,55.8,30.11,ENE,57,9.0,14.0,70,0.00,,---,0.00,VWS V14.01,2013-09-15 23:54:00,
2013-09-15 19:59:00,65.9,55.5,30.12,NW,311,5.0,15.0,69,0.00,,---,0.00,VWS V14.01,2013-09-15 23:59:00,
2013-09-15 20:04:00,66.0,56.3,30.11,ENE,59,5.0,13.0,71,0.00,,---,0.00,VWS V14.01,2013-09-16 00:04:00,
2013-09-15 20:09:00,66.0,56.7,30.11,South,184,5.0,13.0,72,0.00,,---,0.00,VWS V14.01,2013-09-16 00:09:00,
2013-09-15 20:14:00,66.0,57.1,30.11,WNW,294,6.0,14.0,73,0.00,,---,0.00,VWS V14.01,2013-09-16 00:14:00,
2013-09-15 20:19:00,66.0,56.7,30.12,ENE,63,8.0,15.0,72,0.00,,---,0.00,VWS V14.01,2013-09-16 00:19:00,
2013-09-15 20:24:00,66.0,56.7,30.12,SW,217,11.0,15.0,72,0.00,,---,0.00,VWS V14.01,2013-09-16 00:24:00,
2013-09-15 20:29:00,66.1,57.2,30.12,SW,231,7.0,15.0,73,0.00,,---,0.00,VWS V14.01,2013-09-16 00:29:00,
2013-09-15 20:34:00,66.2,57.3,30.12,NW,307,6.0,13.0,73,0.00,,---,0.00,VWS V14.01,2013-09-16 00:34:00,
2013-09-15 20:39:00,66.2,57.7,30.12,NE,44,9.0,13.0,74,0.00,,---,0.00,VWS V14.01,2013-09-16 00:39:00,
2013-09-15 20:44:00,66.2,58.0,30.12,ESE,115,6.0,13.0,75,0.00,,---,0.00,VWS V14.01,2013-09-16 00:44:00,
2013-09-15 20:49:00,66.2,58.0,30.12,SW,229,4.0,13.0,75,0.00,,---,0.00,VWS V14.01,2013-09-16 00:49:00,
2013-09-15 20:54:00,66.3,58.2,30.12,SW,234,10.0,13.0,75,0.00,,---,0.00,VWS V14.01,2013-09-16 00:54:00,
2013-09-15 20:59:00,66.4,59.0,30.12,West,276,9.0,13.0,77,0.00,,---,0.00,VWS V14.01,2013-09-16 00:59:00,
2013-09-15 21:04:00,66.3,58.5,30.12,NNW,332,6.0,11.0,76,0.00,,---,0.00,VWS V14.01,2013-09-16 01:04:00,
2013-09-15 21:09:00,66.3,58.5,30.12,SSE,162,8.0,13.0,76,0.00,,---,0.00,VWS V14.01,2013-09-16 01:09:00,
2013-09-15 21:14:00,66.4,58.6,30.12,ENE,72,4.0,13.0,76,0.00,,---,0.00,VWS V14.01,2013-09-16 01:14:00,
2013-09-15 21:19:00,66.5,59.1,30.11,NNW,337,6.0,13.0,77,0.00,,---,0.00,VWS V14.01,2013-09-16 01:19:00,
2013-09-15 21:24:00,66.5,59.1,30.11,SSW,211,7.0,13.0,77,0.00,,---,0.00,VWS V14.01,2013-09-16 01:24:00,
2013-09-15 21:29:00,66.6,59.5,30.11,South,187,3.0,13.0,78,0.00,,---,0.00,VWS V14.01,2013-09-16 01:29:00,
2013-09-15 21:34:00,66.6,59.9,30.11,SSW,209,11.0,11.0,79,0.00,,---,0.00,VWS V14.01,2013-09-16 01:34:00,
2013-09-15 21:39:00,66.5,59.8,30.11,NNW,340,4.0,12.0,79,0.00,,---,0.00,VWS V14.01,2013-09-16 01:39:00,
2013-09-15 21:44:00,66.5,60.5,30.11,NNE,18,4.0,13.0,81,0.00,,---,0.00,VWS V14.01,2013-09-16 01:44:00,
2013-09-15 21:49:00,66.4,60.0,30.11,East,89,8.0,14.0,80,0.00,,---,0.00,VWS V14.01,2013-09-16 01:49:00,
2013-09-15 21:54:00,66.4,60.0,30.11,SE,130,13.0,15.0,80,0.00,,---,0.00,VWS V14.01,2013-09-16 01:54:00,
2013-09-15 21:59:00,66.4,60.4,30.11,East,84,5.0,15.0,81,0.00,,---,0.00,VWS V14.01,2013-09-16 01:59:00,
2013-09-15 22:04:00,66.4,60.7,30.11,ESE,120,6.0,11.0,82,0.00,,---,0.00,VWS V14.01,2013-09-16 02:04:00,
2013-09-15 22:09:00,66.3,60.7,30.11,SSE,163,7.0,13.0,82,0.00,,---,0.00,VWS V14.01,2013-09-16 02:09:00,
2013-09-15 22:14:00,66.3,60.7,30.11,SE,143,7.0,13.0,82,0.00,,---,0.00,VWS V14.01,2013-09-16 02:14:00,
2013-09-15 22:19:00,66.3,61.0,30.11,SSW,201,4.0,13.0,83,0.00,,---,0.00,VWS V14.01,2013-09-16 02:19:00,
2013-09-15 22:24:00,66.3,61.0,30.11,NNE,24,4.0,13.0,83,0.00,,---,0.00,VWS V14.01,2013-09-16 02:24:00,
2013-09-15 22:29:00,66.3,61.0,30.11,SSW,213,10.0,13.0,83,0.00,,---,0.00,VWS V14.01,2013-09-16 02:29:00,
2013-09-15 22:34:00,66.2,60.9,30.11,WSW,250,12.0,12.0,83,0.00,,---,0.00,VWS V14.01,2013-09-16 02:34:00,
2013-09-15 22:39:00,66.2,60.9,30.11,SSW,194,11.0,16.0,83,0.00,,---,0.00,VWS V14.01,2013-09-16 02:39:00,
2013-09-15 22:44:00,66.3,60.7,30.11,SSW,193,6.0,16.0,82,0.00,,---,0.00,VWS V14.01,2013-09-16 02:44:00,
2013-09-15 22:49:00,66.3,60.7,30.11,East,80,8.0,16.0,82,0.00,,---,0.00,VWS V14.01,2013-09-16 02:49:00,
2013-09-15 22:54:00,66.3,60.3,30.11,SW,217,6.0,16.0,81,0.00,,---,0.00,VWS V14.01,2013-09-16 02:54:00,
2013-09-15 22:59:00,66.4,60.4,30.11,NE,41,2.0,16.0,81,0.00,,---,0.00,VWS V14.01,2013-09-16 02:59:00,
2013-09-15 23:04:00,66.4,60.0,30.11,SW,214,3.0,13.0,80,0.00,,---,0.00,VWS V14.01,2013-09-16 03:04:00,
2013-09-15 23:09:00,66.4,60.4,30.11,ESE,102,9.0,15.0,81,0.00,,---,0.00,VWS V14.01,2013-09-16 03:09:00,
2013-09-15 23:14:00,66.4,60.0,30.11,South,186,9.0,16.0,80,0.00,,---,0.00,VWS V14.01,2013-09-16 03:14:00,
2013-09-15 23:19:00,66.4,60.4,30.11,SSW,212,7.0,16.0,81,0.00,,---,0.00,VWS V14.01,2013-09-16 03:19:00,
2013-09-15 23:24:00,66.3,60.3,30.11,SSW,193,11.0,16.0,81,0.00,,---,0.00,VWS V14.01,2013-09-16 03:24:00,
2013-09-15 23:29:00,66.3,60.3,30.11,SW,214,12.0,17.0,81,0.00,,---,0.00,VWS V14.01,2013-09-16 03:29:00,
2013-09-15 23:34:00,66.3,60.3,30.11,NNE,33,10.0,15.0,81,0.00,,---,0.00,VWS V14.01,2013-09-16 03:34:00,
2013-09-15 23:39:00,66.3,60.3,30.11,WSW,257,5.0,15.0,81,0.00,,---,0.00,VWS V14.01,2013-09-16 03:39:00,
2013-09-15 23:44:00,66.3,60.3,30.11,SSW,200,6.0,15.0,81,0.00,,---,0.00,VWS V14.01,2013-09-16 03:44:00,
2013-09-15 23:49:00,66.2,60.2,30.11,NNE,24,7.0,15.0,81,0.00,,---,0.00,VWS V14.01,2013-09-16 03:49:00,
2013-09-15 23:54:00,66.2,60.2,30.10,SSW,195,6.0,15.0,81,0.00,,---,0.00,VWS V14.01,2013-09-16 03:54:00,
2013-09-15 23:59:00,66.0,60.0,30.10,SSE,150,7.0,15.0,81,0.00,,---,0.00,VWS V14.01,2013-09-16 03:59:00,